Weather History for Fes-Sais, Morocco

Change the Weather History Date:

Saturday, May 11, 2013

  Actual Average Record
Temperature  
Mean Temperature 70 °F -  
Max Temperature 87 °F 80 °F 98 °F (1999)
Min Temperature 53 °F 54 °F 41 °F (2001)
Cooling Degree Days 5    
Growing Degree Days 20 (Base 50)    
Moisture  
Dew Point 51 °F    
Average Humidity 51    
Maximum Humidity 77    
Minimum Humidity 19    
Precipitation  
Precipitation 0.00 in 0.06 in - ()
Sea Level Pressure  
Sea Level Pressure 30.08 in    
Wind  
Wind Speed 6 mph ()    
Max Wind Speed 9 mph    
Max Gust Speed 76 mph    
Visibility 5.9 miles    
Events      
Averages and records for this station are not official NWS values.
T = Trace of Precipitation, MM = Missing Value Source: Averaged Metar Reports

Daily Weather History Graph

Daily Weather History Graph

Search for Another Location

Airport:

Trip Planner

Search our weather history database for the weather conditions in past years. The results will help you decide how hot, cold, wet, or windy it might be!

Date:

Astronomy

May. 11, 2013 Rise Set
Actual Time 6:21 AM WEST 8:11 PM WEST
Civil Twilight 5:54 AM WEST 8:38 PM WEST
Nautical Twilight 5:21 AM WEST 9:11 PM WEST
Astronomical Twilight 4:46 AM WEST 9:47 PM WEST
Moon 7:20 AM WEST (5/11) 9:38 PM WEST (5/11)
Length of Visible Light 14h 44m
Length of Day
13h 49m
New Moon, 2% of the Moon is Illuminated
May 11
New Moon
May 18
First Quarter
May 25
Full
May 31
Last Quarter
Jun 8
New

Hourly Weather History & Observations

Time (WEST) Temp. Heat Index Dew Point Humidity Pressure Visibility Wind Dir Wind Speed Gust Speed Precip Events Conditions
12:00 AM 60.8 °F - 50.0 °F 68% 30.12 in - South 9.2 mph - N/A   Clear
1:00 AM 60 °F - 46 °F 50% 30.12 in 6 mi South 9.2 mph - -   Clear
1:00 AM 60.8 °F - 46.4 °F 59% 30.12 in - South 9.2 mph - N/A   Clear
2:00 AM 60.8 °F - 46.4 °F 59% 30.12 in - South 8.1 mph - N/A   Clear
3:00 AM 55.4 °F - 46.4 °F 72% 30.09 in - South 6.9 mph - N/A   Clear
4:00 AM 55 °F - 47 °F 67% 30.11 in 6 mi SSE 4.6 mph - -   Clear
4:00 AM 55.4 °F - 46.4 °F 72% 30.09 in - SE 4.6 mph - N/A   Clear
5:00 AM 53.6 °F - 46.4 °F 77% 30.09 in - SSE 4.6 mph - N/A   Clear
6:00 AM - - - N/A% 0.00 in - WNW 6.9 mph - N/A   Clear
7:00 AM 55 °F - 48 °F 71% 30.11 in 6 mi South 8.1 mph - -   Clear
7:00 AM 55.4 °F - 48.2 °F 77% 30.09 in - South 8.1 mph - N/A   Clear
8:00 AM 66.2 °F - 53.6 °F 64% 30.09 in - Variable 2.3 mph - N/A   Clear
9:00 AM 69.8 °F - 50.0 °F 49% 30.12 in 2.2 mi North 4.6 mph - N/A   Unknown
10:00 AM 73.4 °F - 53.6 °F 50% 30.12 in - WNW 5.8 mph 76.0 mph N/A   Clear
11:00 AM 75.2 °F - 51.8 °F 44% 30.12 in - Variable 2.3 mph - N/A   Clear
12:00 PM 80.6 °F 80.3 °F 53.6 °F 39% 30.12 in - South 3.5 mph 62.1 mph N/A   Clear
1:00 PM 81 °F - 54 °F 28% 30.03 in 6 mi South 3.5 mph - -   Clear
1:00 PM 80.6 °F - 51.8 °F 37% 30.09 in - North 4.6 mph - N/A   Clear
2:00 PM 80.6 °F - 51.8 °F 37% 30.09 in 6.2 mi North 6.9 mph - N/A   Mostly Cloudy
3:00 PM 87.8 °F 85.7 °F 53.6 °F 31% 30.06 in 6.2 mi North 5.8 mph - N/A   Mostly Cloudy
4:00 PM 87 °F - 51 °F 19% 29.96 in 6 mi North 5.8 mph - -   Scattered Clouds
4:00 PM 87.8 °F 86.5 °F 57.2 °F 35% 30.06 in 6.2 mi North 6.9 mph - N/A   Mostly Cloudy
5:00 PM 87.8 °F 85.7 °F 53.6 °F 31% 30.04 in 6.2 mi NW 8.1 mph - N/A   Mostly Cloudy
6:00 PM 82.4 °F - 50.0 °F 32% 30.04 in 6.2 mi NNW 8.1 mph - N/A   Mostly Cloudy
7:00 PM 81 °F - 54 °F 28% 29.97 in 6 mi NW 9.2 mph - -   Scattered Clouds
7:00 PM 80.6 °F 80.5 °F 55.4 °F 42% 30.06 in 6.2 mi NW 9.2 mph - N/A   Mostly Cloudy
8:00 PM 73.4 °F - 51.8 °F 47% 30.06 in 6.2 mi NW 8.1 mph - N/A   Mostly Cloudy
9:00 PM 69.8 °F - 51.8 °F 53% 30.09 in 6.2 mi WNW 9.2 mph - N/A   Mostly Cloudy
10:00 PM 66 °F - 55 °F 59% 30.11 in 6 mi SSW 9.2 mph - -   Clear
10:00 PM 66.2 °F - 55.4 °F 68% 30.12 in - SSW 9.2 mph - N/A   Clear
11:00 PM 62.6 °F - 51.8 °F 68% 30.12 in - SSW 9.2 mph - N/A   Clear